Погода в Задорино

Россия / Костромская область     58°20′39″N   43°20′30″E
темп.,
°C
ветер,
м/с
пор.,
м/с
влажн.,
%
обл.,
%
осадки,
мм/ч
давл.,
гПа
погр.,
м
8 марта, пн
пн800:00−7зсз2995100 0.9 990548
03:00−11зсз2595100 0.9 991104
06:00−14з3695100 0.0 992117
09:00−11зсз369599 0.0 994227
12:00−7ссз249192 0.1 996588
15:00−7с459096 0.3 999661
18:00−11с379397 0.1 1002304
21:00−12с399485 0.2 1005432
9 марта, вт
вт900:00−17ссз379679 0.0 1007142
03:00−18ссз379681 0.0 1010183
06:00−23ссз369856 0.0 1011112
09:00−20с369628 0.0 1013255
12:00−16с359273 0.0 1014459
15:00−15с369087 0.1 1016613
18:00−19с3895100 0.1 1017218
21:00−22с399799 0.1 1020242
10 марта, ср
ср1000:00−26с369760 0.0 1022136
03:00−29с369729 0.0 1023102
06:00−30с36970 0.0 102592
09:00−25с35950 0.0 1026238
12:00−18ссз25900 0.0 1026433
15:00−15сз358623 0.0 1025697
18:00−18зсз2394100 0.0 102557
21:00−21сз239897 0.0 102667
11 марта, чт
чт1100:00−23сз239847 0.0 102661
03:00−23зсз359824 0.0 102786
06:00−21зсз38980 0.0 1026165
09:00−16сз479523 0.0 1027262
12:00−10сз369027 0.0 1026378
15:00−7зсз368513 0.0 1026538
18:00−12з23930 0.0 102650
21:00−15з23970 0.0 102835
12 марта, пт
пт1200:00−17зюз23980 0.0 102820
03:00−19зюз23990 0.0 102828
06:00−21юз231004 0.0 102828
09:00−16ююз369515 0.0 1027264
12:00−11ююз488418 0.0 1026548
15:00−9ю48839 0.0 1024690
18:00−13ю411890 0.0 1022360
21:00−15ю413930 0.0 1021362